User: anonymous   Login
Location: Chuathbaluk
(61.5726°N, 159.2454°W)
Time: 22:33:22
(UTC+00:00)
Language:

PCSat - Orbit

View from above orbital plane
View from above orbital plane
View from above satellite
View from above satellite

Ground track
Ground track

The orbit data is extracted from the following two-line orbital elements,

1 26931U 01043C   21017.86920317  .00000016  00000-0  37794-4 0  9997
2 26931  67.0524 309.0595 0007417 271.8353  88.1898 14.30603060  7705
Epoch (UTC): 17 January 2021 20:51:39
Eccentricity: 0.0007417
inclination: 67.0524°
perigee height: 784 km
apogee height: 795 km
right ascension of ascending node: 309.0595°
argument of perigee: 271.8353°
revolutions per day: 14.30603060
mean anomaly at epoch: 88.1898°
orbit number at epoch: 770

The dashed part of the orbit path shows where the satellite is in the earth's shadow,  

DLR